Find Thor 2R

NORAD ID: 32487 Int'l Des: 2008-006 Owner: TNOR Country: N operational
HEOCIRCULARGSOGEO

当前视图

正在加载3D地球...

About Thor 2R

Thor 2R (NORAD 32487) is a satellite launched Feb 11, 2008 by TNOR of N. It operates in HEO, CIRCULAR, GSO, GEO orbit with a mass of 2012.00 kg.

即将过境

Passes for default location (London). Set your location on the main map for personalized predictions.

高度历史

Loading altitude history...

两行轨道根数

1 32487U 08006A 26194.34701051 -.00000012 00000-0 00000+0 0 9994
2 32487 0.0534 235.3925 0002273 245.8359 294.1590 1.00270867 67573
Epoch: Jul 13, 2026 • Age: 19 hours

当前状态

高度 35793.8 km
远地点 / 近地点 N/A
速度 3.07 km/s
星下点 0.01°N, 0.77°W
发射日期 Feb 11, 2008
运行时间 18.4 years
类型 other

技术详情

分类 Payload
质量 2012.00 kg
干质量 1090.00 kg
总质量 2012.00 kg
长度 4.90 m
直径 3.40 m
跨度 21.40 m
形状 Box + 2 Pan
制造商 OSCD
平台类型 OSC Star 2
阶段状态 In Orbit
所有者/国家 TNOR/N

Most Searched